Regional Weather Roundup
Issued by NWS

Home | Current Version | Previous Version | Text Only | Print | Product List | Glossary On
Versions: 1 2 3 4 5 6 7 8 9 10 11 12 13 14 15 16 17 18 19 20 21 22 23 24 25 26 27 28 29 30 31 32 33 34 35 36 37 38 39 40 41 42 43 44 45 46 47 48 49 50
000
ASUS43 KTOP 261608
RWRKS

WEATHER ROUNDUP FOR KANSAS
NATIONAL WEATHER SERVICE GOODLAND KS
1000 AM CST SUN FEB 26 2017

NOTE:  "FAIR" INDICATES FEW OR NO CLOUDS BELOW 12,000 FEET WITH NO
SIGNIFICANT WEATHER AND/OR OBSTRUCTIONS TO VISIBILITY.

KSZ001>006-013>018-027>032-041>047-261700-
NORTHWEST KANSAS

CITY           SKY/WX    TMP DP  RH WIND       PRES   REMARKS
GOODLAND       SUNNY     33  10  38 VRB5      29.90R
HAYS           SUNNY     37  18  46 CALM      29.97R
HILL CITY      SUNNY     40  14  34 NE6       29.97R
RUSSELL        SUNNY     40  22  48 VRB3      29.95R
$$

KSZ061>065-074>080-084>089-261700-
SOUTHWEST KANSAS

CITY           SKY/WX    TMP DP  RH WIND       PRES   REMARKS
DODGE CITY     SUNNY     39  18  42 N15       29.92R WCI  31
ELKHART          N/A     35   7  31 N7          N/A
GARDEN CITY    SUNNY     34  16  47 N9        29.92R
GREAT BEND     SUNNY     38  20  48 NE6       29.95R
LIBERAL        SUNNY     36  16  44 N13       29.92R WCI  27
PRATT          SUNNY     35  18  50 NW3       29.95R
$$

KSZ066>073-081>083-090>101-261700-
SOUTHEAST KANSAS

CITY           SKY/WX    TMP DP  RH WIND       PRES   REMARKS
CHANUTE        MOSUNNY   44  23  43 S12       30.01S
COFFEYVILLE    LGT RAIN  41  35  79 S5        30.04R
HUTCHINSON     SUNNY     38  22  52 CALM      29.96R
MEDICINE LODGE   N/A     39  22  50 CALM      29.94R
NEWTON         MOSUNNY   39  22  50 S7        29.97R
PARSONS        LGT RAIN  43  29  57 S14G22    30.03R
WICHITA INTL   CLOUDY    40  23  50 S9        29.96R
WICHITA JABRA  CLOUDY    40  23  50 S8        29.96R
WICHITA MCCONL CLOUDY    42  21  44 SW13      29.96R
WINFIELD       MOSUNNY   45  25  45 S8        29.98R
$$

KSZ007>012-019>026-033>040-048>060-102>105-261700-
NORTHEAST KANSAS

CITY           SKY/WX    TMP DP  RH WIND       PRES   REMARKS
CONCORDIA      SUNNY     43  26  51 S7        29.97R
EMPORIA        CLOUDY    36  32  85 E6        30.01R
LAWRENCE       CLOUDY    39  34  82 E3        30.04S
MANHATTAN      MOSUNNY   42  34  73 SE5       30.00S
MARYSVILLE     SUNNY     43  32  65 SW10      29.97S
OLATHE IND     CLOUDY    38  28  67 SE5       30.04R
OLATHE EXE     CLOUDY    37  31  78 CALM      30.04R
SALINA         SUNNY     40  33  76 SE9       29.99R
TOPEKA BILLARD CLOUDY    40  32  73 SE7       30.02F
TOPEKA FORBES  CLOUDY    40  30  67 E6        30.01F
$$



USA.gov is the U.S. government's official web portal to all federal, state and local government web resources and services.